Tracking 29892 objects as of 21-Nov-2024
HD Live streaming from Space Station
objects crossing your sky now

OPS 4682 DEB

Track OPS 4682 DEB now!
10-day predictions


NORAD ID: 38424
Int'l Code: 1965-027ED
Perigee: 1,231.5 km
Apogee: 1,278.4 km
Inclination: 90.3 °
Period: 110.5 minutes
Semi major axis: 7625 km
RCS: 0.0114 m2 (small)
Launch date: April 3, 1965
Source: United States (US)
Launch site: AIR FORCE WESTERN TEST RANGE (AFWTR)

Note: This is SATELLITE DEBRIS
Your satellite tracking list
Your tracking list is empty




NASA's NSSDC Master Catalog

Two Line Element Set (TLE):
1 38424U 65027ED  24325.02724284 -.00000129  00000-0 -42796-3 0  9991
2 38424  90.2603 353.7102 0030689 240.8542 118.9509 13.03653845237019
Source of the keplerian elements: AFSPC